{"data":{"norad_id":58858,"intl_designator":"2024-019F","name":"STARLINK-31226","alt_names":[],"object_type":"PAYLOAD","status":"ACTIVE","operator":null,"country":"US","launch_date":"2024-01-29","launch_site_code":"AFETR","launch_vehicle":null,"mission":null,"orbit_class":"UNKNOWN","rcs_meters":null,"size_class":null,"mass_kg":null,"dimensions":null,"purposes":["comms"],"wikipedia_slug":null,"has_3d_model":false,"image_url":null,"decayed_at":null,"tle_current":{"epoch":"2026-05-25T03:28:34.016160Z","epoch_age_seconds":56388,"freshness":"FRESH","line1":"1 58858U 24019F   26145.14483815  .00000739  00000+0  36404-4 0  9991","line2":"2 58858  43.0029 177.2885 0001528 288.8263  71.2423 15.27570048130771","mean_motion":15.27570048,"eccentricity":0.0001528,"inclination_deg":43.0029,"raan_deg":177.2885,"arg_perigee_deg":288.8263,"mean_anomaly_deg":71.2423,"bstar":3.6404e-5,"rev_number":13077,"period_min":94.267362854184,"perigee_km":482.03050228073,"apogee_km":484.12728985857,"semimajor_km":6861.2158960697,"source":"CELESTRAK","updated_at":"2026-05-25T13:38:18.758192Z"}}}